Weather History for Jacksonville, FL

Change the Weather History Date:

Tuesday, April 30, 2013

  Actual Average Record
Temperature  
Mean Temperature 73 °F 70 °F  
Max Temperature 84 °F 82 °F 93 °F (1991)
Min Temperature 61 °F 58 °F 42 °F (1874)
Degree Days  
Heating Degree Days 0 1  
Month to date heating degree days 41 56  
Since 1 July heating degree days 1238 1344  
Cooling Degree Days 8 6  
Month to date cooling degree days 127 113  
Year to date cooling degree days 219 196  
Growing Degree Days 22 (Base 50)    
Moisture  
Dew Point 63 °F    
Average Humidity 77    
Maximum Humidity 100    
Minimum Humidity 54    
Precipitation  
Precipitation 0.00 in 0.07 in 2.39 in (1912)
Month to date precipitation 3.06 2.64  
Year to date precipitation 11.85 13.08  
Snow  
Snow 0.00 in 0.00 in 0.00 in (2002)
Month to date snowfall 0.0 0.0  
Since 1 July snowfall 0.0 T  
Snow Depth 0.00 in    
Sea Level Pressure  
Sea Level Pressure 30.00 in    
Wind  
Wind Speed 5 mph (North)    
Max Wind Speed 17 mph    
Max Gust Speed 21 mph    
Visibility 6 miles    
Events Fog    
T = Trace of Precipitation, MM = Missing Value Source: NWS Daily Summary

Daily Weather History Graph

Daily Weather History Graph

Search for Another Location

Airport:

Trip Planner

Search our weather history database for the weather conditions in past years. The results will help you decide how hot, cold, wet, or windy it might be!

Date:

Astronomy

Apr. 30, 2013 Rise Set
Actual Time 6:43 AM EDT 8:04 PM EDT
Civil Twilight 6:18 AM EDT 8:29 PM EDT
Nautical Twilight 5:48 AM EDT 9:00 PM EDT
Astronomical Twilight 5:16 AM EDT 9:31 PM EDT
Moon 12:21 AM EDT 11:15 AM EDT
Length of Visible Light 14h 11m
Length of Day
13h 20m
Waning Gibbous, 70% of the Moon is Illuminated
Apr 30
Waning Gibbous
May 2
Last Quarter
May 9
New
May 18
First Quarter
May 25
Full

Hourly Weather History & Observations

Time (EDT) Temp. Heat Index Dew Point Humidity Pressure Visibility Wind Dir Wind Speed Gust Speed Precip Events Conditions
12:56 AM 63.0 °F - 62.1 °F 97% 29.97 in 7.0 mi Calm Calm - N/A   Mostly Cloudy
1:56 AM 62.1 °F - 61.0 °F 96% 29.97 in 7.0 mi Calm Calm - N/A   Mostly Cloudy
2:12 AM 60.8 °F - 60.8 °F 100% 29.96 in 6.0 mi NNW 3.5 mph - N/A   Mostly Cloudy
2:37 AM 60.8 °F - 60.8 °F 100% 29.96 in 5.0 mi Calm Calm - N/A   Mostly Cloudy
2:45 AM 62.6 °F - 60.8 °F 94% 29.97 in 0.5 mi Calm Calm - N/A   Mostly Cloudy
2:56 AM 62.1 °F - 61.0 °F 96% 29.97 in 0.5 mi Calm Calm - N/A   Mostly Cloudy
3:08 AM 62.6 °F - 60.8 °F 94% 29.96 in 0.2 mi Calm Calm - N/A Fog Fog
3:56 AM 62.1 °F - 62.1 °F 100% 29.98 in 0.2 mi Calm Calm - N/A Fog Fog
4:07 AM 62.6 °F - 62.6 °F 100% 29.98 in 0.5 mi Calm Calm - N/A Fog Fog
4:43 AM 62.6 °F - 62.6 °F 100% 29.98 in 1.0 mi Calm Calm - N/A   Mist
4:56 AM 62.1 °F - 61.0 °F 96% 29.98 in 1.0 mi Calm Calm - N/A   Mist
5:12 AM 62.6 °F - 60.8 °F 94% 29.97 in 0.8 mi Calm Calm - N/A   Mist
5:22 AM 62.6 °F - 60.8 °F 94% 29.98 in 0.2 mi West 3.5 mph - N/A Fog Fog
5:56 AM 63.0 °F - 62.1 °F 97% 29.97 in 0.2 mi WNW 3.5 mph - N/A Fog Fog
6:56 AM 62.1 °F - 61.0 °F 96% 29.98 in 0.2 mi Calm Calm - N/A Fog Fog
7:56 AM 62.1 °F - 62.1 °F 100% 30.01 in 0.1 mi WSW 3.5 mph - N/A Fog Fog
8:56 AM 64.9 °F - 64.9 °F 100% 30.02 in 0.1 mi NNW 3.5 mph - N/A Fog Fog
9:12 AM 64.4 °F - 64.4 °F 100% 30.02 in 0.5 mi Calm Calm - N/A Fog Fog
9:27 AM 66.2 °F - 64.4 °F 94% 30.02 in 6.0 mi Calm Calm - N/A   Mostly Cloudy
9:32 AM 66.2 °F - 64.4 °F 94% 30.02 in 2.0 mi Calm Calm - N/A   Mostly Cloudy
9:39 AM 66.2 °F - 66.2 °F 100% 30.02 in 3.0 mi NNW 4.6 mph - N/A   Mostly Cloudy
9:56 AM 68.0 °F - 66.0 °F 93% 30.03 in 9.0 mi Calm Calm - N/A   Mostly Cloudy
10:06 AM 71.6 °F - 66.2 °F 83% 30.02 in 10.0 mi North 3.5 mph - N/A   Mostly Cloudy
10:56 AM 75.0 °F - 64.9 °F 71% 30.02 in 10.0 mi Calm Calm - N/A   Scattered Clouds
11:56 AM 77.0 °F - 61.0 °F 58% 30.01 in 10.0 mi Calm Calm - N/A   Scattered Clouds
12:56 PM 80.1 °F 81.2 °F 62.1 °F 54% 30.00 in 10.0 mi West 3.5 mph - N/A   Scattered Clouds
1:56 PM 81.0 °F 81.9 °F 62.1 °F 52% 29.98 in 10.0 mi NNW 5.8 mph - N/A   Scattered Clouds
2:56 PM 81.0 °F 81.9 °F 62.1 °F 52% 29.98 in 10.0 mi WNW 4.6 mph - N/A   Scattered Clouds
3:56 PM 77.0 °F - 66.9 °F 71% 29.97 in 10.0 mi East 16.1 mph - N/A   Scattered Clouds
4:56 PM 78.1 °F - 66.0 °F 66% 29.97 in 10.0 mi ENE 13.8 mph - N/A   Scattered Clouds
5:56 PM 75.0 °F - 64.9 °F 71% 29.99 in 10.0 mi East 15.0 mph - N/A   Scattered Clouds
6:56 PM 73.0 °F - 64.0 °F 73% 30.00 in 10.0 mi ENE 13.8 mph - N/A   Mostly Cloudy
7:56 PM 70.0 °F - 63.0 °F 78% 30.02 in 10.0 mi East 10.4 mph - N/A   Mostly Cloudy
8:56 PM 68.0 °F - 63.0 °F 84% 30.04 in 10.0 mi East 4.6 mph - N/A   Mostly Cloudy
9:56 PM 68.0 °F - 64.0 °F 87% 30.05 in 10.0 mi East 6.9 mph - N/A   Mostly Cloudy
10:56 PM 66.0 °F - 64.0 °F 93% 30.06 in 10.0 mi NE 5.8 mph - N/A   Mostly Cloudy
11:56 PM 64.0 °F - 62.1 °F 93% 30.06 in 10.0 mi Calm Calm - N/A   Mostly Cloudy